Content
SEND FEEDBACK

Daily
Averages
Monthly
Summary
Tunisia

SOUK-EL ARBA, TUNISIA


Home > Africa > Tunisia
Elevation: 472 feet     Latitude: 36 28N     Longitude: 008 48E

WEATHER
 
SELECT A DAY
Number of Records: 130,934;   Date Range: 2/20/97 - 7/22/14
 
SHARE

PRINT THIS DATA

[ ← Previous Day ]
WEATHER ALMANAC - JANUARY 23, 2013
[ Next Day → ]
[ °C ]   °F
Weather ElementAverageHighLow
Temperature48.7 °F66.2 °F (3:00 pm)41 °F (1:00 am)
Dewpoint39.4 °F42.8 °F (11:00 am)35 °F (7:00 am)
Humidity69.8 %100 % (1:00 am)39 % (1:00 pm)
Barometer29.81 in29.93 in (1:00 am)29.68 in (3:00 pm)
Wind Speed11.8 mph101.3 mph (4:00 pm)
Weather ElementAverage
Visibility6.1 mi
Wind DirectionSSW (198.7 °)

Weather ElementTotal
Precipitation---
Heating Degree Days11.4 (Base 65)
Growing Degree Days3.6 (Base 50)
Averaged from 26 records on January 23, 2013
WEATHER CONDITIONS BREAKOUT
WIND DIRECTION BREAKOUT
WEATHER BY HOUR - JANUARY 23, 2013
[ °C ]   °F
Local TimeTemperatureDewpointHumidityBarometerVisibilityWind DirectionWind SpeedGust SpeedPrecipitationEventsConditions
1:00 AM41.0 °F40.0 °F95 %29.93 in5.0 miCalmScattered Clouds
1:00 AM41.0 °F41.0 °F100 %29.92 in5.0 miCalmPartly Cloudy
2:00 AM41.0 °F39.2 °F93 %29.92 in5.0 miCalmPartly Cloudy
4:00 AM42.0 °F36.0 °F73 %29.88 in5.0 miSSW (210°)9.2 mphScattered Clouds
4:00 AM42.8 °F35.6 °F76 %29.86 in5.0 miSSW (210°)9.2 mphPartly Cloudy
6:00 AM42.8 °F35.6 °F76 %29.86 in6.2 miSSW (210°)4.6 mphPartly Cloudy
7:00 AM42.8 °F35.6 °F76 %29.83 in6.2 miSSW (200°)11.5 mphPartly Cloudy
7:00 AM42.0 °F35.0 °F68 %29.85 in6.0 miSSW (200°)11.5 mphScattered Clouds
8:00 AM41.0 °F35.6 °F81 %29.83 in6.2 miWSW (240°)4.6 mphPartly Cloudy
9:00 AM46.4 °F39.2 °F76 %29.83 in6.2 miCalmPartly Cloudy
10:00 AM49.0 °F41.0 °F64 %29.82 in9.0 miCalmScattered Clouds
10:00 AM50.0 °F41.0 °F71 %29.80 in6.2 miCalmPartly Cloudy
11:00 AM55.4 °F42.8 °F63 %29.80 in6.2 miSW (220°)2.3 mphPartly Cloudy
12:00 PM59.0 °F42.8 °F55 %29.74 in6.2 miWSW (240°)9.2 mphScattered Clouds
1:00 PM60.0 °F41.0 °F39 %29.73 in9.0 miWest (270°)6.9 mphMostly Cloudy
1:00 PM59.0 °F41.0 °F51 %29.71 in6.2 miWest (270°)6.9 mphScattered Clouds
2:00 PM59.0 °F41.0 °F51 %29.71 in6.2 miWest (260°)13.8 mphScattered Clouds
3:00 PM66.2 °F42.8 °F43 %29.68 in6.2 miWSW (250°)18.4 mphScattered Clouds
4:00 PM51.0 °F41.0 °F59 %29.78 in9.0 mi°101.3 mphMostly Cloudy
4:00 PM51.8 °F41.0 °F67 %29.77 in6.2 miWest (280°)9.2 mphScattered Clouds
5:00 PM48.2 °F39.2 °F71 %29.77 in6.2 miWest (280°)11.5 mphScattered Clouds
6:00 PM48.2 °F39.2 °F71 %29.80 in5.0 miWSW (250°)13.8 mphScattered Clouds
7:00 PM47.0 °F40.0 °F69 %29.82 in5.0 miWSW (250°)13.8 mphMostly Cloudy
7:00 PM46.4 °F41.0 °F81 %29.80 in5.0 miWSW (250°)11.5 mphScattered Clouds
8:00 PM46.4 °F39.2 °F76 %29.83 in5.0 miSW (230°)18.4 mphScattered Clouds
10:00 PM46.4 °F37.4 °F71 %29.83 in5.0 miWSW (250°)18.4 mphScattered Clouds
Hourly data recorded from DTTN, located miles away from Souk-el Arba, Tunisia







STORIES FROM OUR PARTNERS